| time (UTC) | temp C | wind direction | speed KPH | gust KPH | rain 1hr cm | rain 24hr cm | rain mn cm | humidity % | barometer mb |
| 20260906230427 | 35 | 185 | 20.9 | 27.4 | 0.00 | 0.28 | 0.28 | 46 | 1011.3 |
| 20260906225926 | 35 | 198 | 17.7 | 27.4 | 0.00 | 0.28 | 0.28 | 45 | 1011.3 |
| 20260906225421 | 36 | 182 | 14.5 | 20.9 | 0.00 | 0.28 | 0.28 | 45 | 1011.4 |
| 20260906224917 | 36 | 195 | 16.1 | 22.5 | 0.00 | 0.28 | 0.28 | 44 | 1011.1 |
| 20260906224413 | 36 | 181 | 16.1 | 24.1 | 0.00 | 0.28 | 0.28 | 43 | 1011.0 |
| 20260906223909 | 37 | 189 | 17.7 | 20.9 | 0.00 | 0.28 | 0.28 | 42 | 1011.4 |
| 20260906223405 | 37 | 181 | 17.7 | 17.7 | 0.00 | 0.28 | 0.28 | 41 | 1011.4 |
| 20260906222903 | 36 | 200 | 20.9 | 24.1 | 0.00 | 0.28 | 0.28 | 43 | 1011.4 |
| 20260906222402 | 35 | 184 | 16.1 | 24.1 | 0.00 | 0.28 | 0.28 | 44 | 1011.4 |
| 20260906221859 | 36 | 185 | 19.3 | 22.5 | 0.00 | 0.28 | 0.28 | 43 | 1011.6 |
| 20260906221354 | 38 | 177 | 16.1 | 19.3 | 0.00 | 0.28 | 0.28 | 41 | 1011.5 |
| 20260906220850 | 37 | 185 | 16.1 | 24.1 | 0.00 | 0.28 | 0.28 | 42 | 1011.6 |
| 20260906220345 | 36 | 205 | 22.5 | 24.1 | 0.00 | 0.28 | 0.28 | 43 | 1011.7 |
| 20260906215844 | 36 | 178 | 17.7 | 22.5 | 0.00 | 0.28 | 0.28 | 43 | 1011.8 |
| 20260906215339 | 36 | 180 | 17.7 | 22.5 | 0.00 | 0.28 | 0.28 | 42 | 1011.7 |
| 20260906214836 | 36 | 181 | 17.7 | 25.7 | 0.00 | 0.28 | 0.28 | 44 | 1011.7 |
| 20260906214331 | 37 | 179 | 17.7 | 22.5 | 0.00 | 0.28 | 0.28 | 42 | 1011.7 |
| 20260906213830 | 37 | 179 | 16.1 | 24.1 | 0.00 | 0.28 | 0.28 | 41 | 1011.8 |
| 20260906213325 | 37 | 157 | 17.7 | 24.1 | 0.00 | 0.28 | 0.28 | 41 | 1011.8 |
| 20260906212822 | 37 | 184 | 14.5 | 19.3 | 0.00 | 0.28 | 0.28 | 41 | 1011.7 |
| 20260906212318 | 36 | 178 | 14.5 | 22.5 | 0.00 | 0.28 | 0.28 | 43 | 1012.1 |
| 20260906211817 | 37 | 173 | 16.1 | 24.1 | 0.00 | 0.28 | 0.28 | 42 | 1012.2 |
| 20260906211313 | 37 | 192 | 17.7 | 24.1 | 0.00 | 0.28 | 0.28 | 41 | 1012.3 |
| 20260906210812 | 37 | 199 | 22.5 | 25.7 | 0.00 | 0.28 | 0.28 | 41 | 1012.2 |
| 20260906210307 | 36 | 161 | 17.7 | 20.9 | 0.00 | 0.28 | 0.28 | 44 | 1012.3 |
| 20260906205802 | 38 | 169 | 17.7 | 19.3 | 0.00 | 0.28 | 0.28 | 42 | 1012.3 |
| 20260906205259 | 37 | 190 | 17.7 | 27.4 | 0.00 | 0.28 | 0.28 | 43 | 1012.2 |
| 20260906204754 | 36 | 187 | 16.1 | 30.6 | 0.00 | 0.28 | 0.28 | 44 | 1012.3 |
| 20260906204253 | 37 | 193 | 16.1 | 24.1 | 0.00 | 0.28 | 0.28 | 43 | 1012.5 |
| 20260906203752 | 37 | 187 | 17.7 | 25.7 | 0.00 | 0.28 | 0.28 | 43 | 1012.6 |
| 20260906203248 | 36 | 170 | 19.3 | 25.7 | 0.00 | 0.28 | 0.28 | 45 | 1012.4 |
| 20260906202744 | 36 | 189 | 17.7 | 22.5 | 0.00 | 0.28 | 0.28 | 44 | 1012.5 |
| 20260906202244 | 36 | 180 | 17.7 | 20.9 | 0.00 | 0.28 | 0.28 | 46 | 1012.6 |
| 20260906201738 | 36 | 175 | 16.1 | 24.1 | 0.00 | 0.28 | 0.28 | 47 | 1012.8 |
| 20260906201233 | 36 | 199 | 19.3 | 24.1 | 0.00 | 0.28 | 0.28 | 44 | 1012.8 |
| 20260906200729 | 36 | 184 | 17.7 | 22.5 | 0.00 | 0.28 | 0.28 | 45 | 1012.8 |
| 20260906200225 | 35 | 172 | 16.1 | 24.1 | 0.00 | 0.28 | 0.28 | 46 | 1012.9 |
| 20260906195720 | 36 | 167 | 16.1 | 22.5 | 0.00 | 0.28 | 0.28 | 46 | 1012.9 |
| 20260906195216 | 36 | 170 | 17.7 | 24.1 | 0.00 | 0.28 | 0.28 | 47 | 1012.9 |
| 20260906194711 | 35 | 183 | 20.9 | 27.4 | 0.00 | 0.28 | 0.28 | 47 | 1013.1 |
| 20260906194206 | 36 | 180 | 17.7 | 25.7 | 0.00 | 0.28 | 0.28 | 46 | 1013.3 |
| 20260906193701 | 36 | 196 | 14.5 | 20.9 | 0.00 | 0.28 | 0.28 | 46 | 1013.2 |
| 20260906193156 | 36 | 162 | 19.3 | 25.7 | 0.00 | 0.28 | 0.28 | 48 | 1013.2 |
| 20260906192652 | 35 | 167 | 17.7 | 22.5 | 0.00 | 0.28 | 0.28 | 50 | 1013.3 |
| 20260906192151 | 35 | 164 | 16.1 | 22.5 | 0.00 | 0.28 | 0.28 | 49 | 1013.3 |
| 20260906191646 | 36 | 181 | 17.7 | 24.1 | 0.00 | 0.28 | 0.28 | 49 | 1013.3 |
| 20260906191146 | 34 | 179 | 14.5 | 25.7 | 0.00 | 0.28 | 0.28 | 51 | 1013.3 |
| 20260906190640 | 35 | 185 | 16.1 | 24.1 | 0.00 | 0.28 | 0.28 | 50 | 1013.4 |
| 20260906190135 | 35 | 178 | 16.1 | 24.1 | 0.00 | 0.28 | 0.28 | 52 | 1013.7 |
| 20260906185633 | 35 | 174 | 16.1 | 22.5 | 0.00 | 0.28 | 0.28 | 49 | 1013.3 |
| 20260906185127 | 35 | 183 | 19.3 | 24.1 | 0.00 | 0.28 | 0.28 | 51 | 1013.6 |
| 20260906184622 | 35 | 176 | 19.3 | 20.9 | 0.00 | 0.28 | 0.28 | 51 | 1013.7 |
| 20260906184118 | 33 | 180 | 19.3 | 24.1 | 0.00 | 0.28 | 0.28 | 52 | 1014.0 |
| 20260906183614 | 35 | 162 | 16.1 | 20.9 | 0.00 | 0.28 | 0.28 | 51 | 1013.9 |
| 20260906183109 | 34 | 172 | 17.7 | 24.1 | 0.00 | 0.28 | 0.28 | 52 | 1013.9 |
| 20260906182604 | 33 | 162 | 17.7 | 20.9 | 0.00 | 0.28 | 0.28 | 52 | 1014.0 |
| 20260906182101 | 33 | 187 | 17.7 | 27.4 | 0.00 | 0.28 | 0.28 | 53 | 1014.0 |
| 20260906181555 | 33 | 200 | 19.3 | 24.1 | 0.00 | 0.28 | 0.28 | 53 | 1014.0 |
| 20260906181051 | 33 | 175 | 17.7 | 24.1 | 0.00 | 0.28 | 0.28 | 52 | 1013.9 |
| 20260906180546 | 33 | 162 | 16.1 | 24.1 | 0.00 | 0.28 | 0.28 | 53 | 1014.4 |
| 20260906180044 | 33 | 176 | 16.1 | 24.1 | 0.00 | 0.28 | 0.28 | 54 | 1014.5 |
| 20260906175544 | 33 | 172 | 16.1 | 19.3 | 0.00 | 0.28 | 0.28 | 61 | 1014.4 |
| 20260906175039 | 32 | 178 | 20.9 | 22.5 | 0.00 | 0.28 | 0.28 | 60 | 1014.6 |
| 20260906174537 | 32 | 188 | 14.5 | 22.5 | 0.00 | 0.28 | 0.28 | 60 | 1014.6 |
| 20260906174032 | 31 | 189 | 24.1 | 25.7 | 0.00 | 0.28 | 0.28 | 62 | 1014.9 |
| 20260906173527 | 31 | 186 | 22.5 | 22.5 | 0.00 | 0.28 | 0.28 | 64 | 1015.0 |
| 20260906173023 | 32 | 184 | 20.9 | 24.1 | 0.00 | 0.28 | 0.28 | 65 | 1014.9 |
| 20260906172517 | 32 | 180 | 17.7 | 20.9 | 0.00 | 0.28 | 0.28 | 68 | 1015.0 |
| 20260906172013 | 31 | 184 | 17.7 | 22.5 | 0.00 | 0.28 | 0.28 | 70 | 1015.1 |
| 20260906171508 | 30 | 182 | 19.3 | 22.5 | 0.00 | 0.28 | 0.28 | 71 | 1015.3 |
| 20260906171003 | 31 | 188 | 16.1 | 20.9 | 0.00 | 0.28 | 0.28 | 71 | 1015.3 |
| 20260906170459 | 30 | 184 | 17.7 | 22.5 | 0.00 | 0.28 | 0.28 | 76 | 1015.3 |
| 20260906165956 | 29 | 180 | 16.1 | 24.1 | 0.00 | 0.28 | 0.28 | 77 | 1015.5 |
| 20260906165454 | 30 | 190 | 16.1 | 20.9 | 0.00 | 0.28 | 0.28 | 78 | 1015.5 |
| 20260906164950 | 28 | 197 | 19.3 | 20.9 | 0.00 | 0.28 | 0.28 | 78 | 1015.5 |
| 20260906164448 | 29 | 185 | 17.7 | 20.9 | 0.00 | 0.28 | 0.28 | 83 | 1015.3 |
| 20260906163945 | 28 | 194 | 17.7 | 19.3 | 0.00 | 0.28 | 0.28 | 84 | 1015.5 |
| 20260906163440 | 27 | 187 | 16.1 | 17.7 | 0.00 | 0.28 | 0.28 | 90 | 1015.5 |
| 20260906162938 | 26 | 182 | 16.1 | 19.3 | 0.00 | 0.28 | 0.28 | 92 | 1015.5 |
| 20260906162437 | 26 | 187 | 16.1 | 19.3 | 0.00 | 0.28 | 0.28 | 95 | 1015.5 |
| 20260906161932 | 26 | 180 | 16.1 | 19.3 | 0.00 | 0.28 | 0.28 | 97 | 1015.7 |
| 20260906161432 | 25 | 184 | 16.1 | 19.3 | 0.00 | 0.28 | 0.28 | 97 | 1015.4 |
| 20260906160931 | 25 | 183 | 16.1 | 17.7 | 0.00 | 0.28 | 0.28 | 97 | 1015.6 |
| 20260906160424 | 25 | 187 | 16.1 | 17.7 | 0.00 | 0.28 | 0.28 | 97 | 1015.6 |
| 20260906155923 | 25 | 183 | 14.5 | 17.7 | 0.00 | 0.28 | 0.28 | 97 | 1015.5 |
| 20260906155417 | 25 | 179 | 14.5 | 17.7 | 0.00 | 0.28 | 0.28 | 97 | 1015.5 |
| 20260906154913 | 24 | 188 | 17.7 | 17.7 | 0.00 | 0.28 | 0.28 | 97 | 1015.5 |
| 20260906154412 | 24 | 182 | 17.7 | 19.3 | 0.00 | 0.28 | 0.28 | 97 | 1015.3 |
| 20260906153911 | 24 | 180 | 16.1 | 19.3 | 0.05 | 0.28 | 0.28 | 96 | 1015.3 |
| 20260906153410 | 23 | 179 | 14.5 | 16.1 | 0.18 | 0.28 | 0.28 | 95 | 1015.4 |
| 20260906152906 | 23 | 178 | 16.1 | 17.7 | 0.23 | 0.25 | 0.25 | 95 | 1015.2 |
| 20260906152400 | 23 | 178 | 16.1 | 17.7 | 0.48 | 0.25 | 0.25 | 94 | 1015.1 |
| 20260906151859 | 24 | 181 | 16.1 | 17.7 | 1.19 | 0.23 | 0.23 | 93 | 1014.9 |
| 20260906151355 | 25 | 204 | 19.3 | 24.1 | 0.79 | 0.15 | 0.15 | 92 | 1015.0 |
| 20260906150851 | 26 | 183 | 17.7 | 19.3 | 0.00 | 0.00 | 0.00 | 85 | 1015.1 |
| 20260906150346 | 26 | 180 | 17.7 | 19.3 | 0.00 | 0.00 | 0.00 | 86 | 1015.1 |
| 20260906145845 | 26 | 175 | 16.1 | 19.3 | 0.00 | 0.00 | 0.00 | 86 | 1015.0 |
| 20260906145344 | 26 | 177 | 17.7 | 17.7 | 0.05 | 0.00 | 0.00 | 85 | 1015.1 |
| 20260906144839 | 26 | 175 | 17.7 | 17.7 | 0.05 | 0.00 | 0.00 | 82 | 1014.7 |
| 20260906144334 | 27 | 179 | 16.1 | 19.3 | 0.00 | 0.00 | 0.00 | 80 | 1015.0 |
| 20260906143834 | 26 | 179 | 17.7 | 19.3 | 0.00 | 0.00 | 0.00 | 79 | 1014.8 |
| 20260906143331 | 26 | 173 | 16.1 | 19.3 | 0.00 | 0.00 | 0.00 | 79 | 1014.9 |
| 20260906142826 | 27 | 174 | 16.1 | 20.9 | 0.00 | 0.00 | 0.00 | 79 | 1015.0 |
| 20260906142321 | 27 | 177 | 16.1 | 19.3 | 0.00 | 0.00 | 0.00 | 79 | 1014.8 |
| 20260906141821 | 27 | 180 | 17.7 | 19.3 | 0.00 | 0.00 | 0.00 | 79 | 1014.8 |
| 20260906141315 | 27 | 179 | 16.1 | 17.7 | 0.00 | 0.00 | 0.00 | 79 | 1014.8 |
| 20260906140814 | 27 | 173 | 17.7 | 17.7 | 0.00 | 0.00 | 0.00 | 79 | 1014.7 |
| 20260906140309 | 27 | 180 | 16.1 | 17.7 | 0.00 | 0.00 | 0.00 | 78 | 1014.6 |
| 20260906135807 | 27 | 178 | 16.1 | 17.7 | 0.00 | 0.00 | 0.00 | 78 | 1014.5 |
| 20260906135305 | 27 | 176 | 16.1 | 17.7 | 0.00 | 0.00 | 0.00 | 78 | 1014.6 |
| 20260906134757 | 27 | 180 | 16.1 | 19.3 | 0.00 | 0.00 | 0.00 | 79 | 1014.5 |
| 20260906134252 | 26 | 180 | 16.1 | 17.7 | 0.00 | 0.00 | 0.00 | 80 | 1014.4 |
| 20260906133748 | 26 | 178 | 17.7 | 19.3 | 0.00 | 0.00 | 0.00 | 81 | 1014.2 |
| 20260906133243 | 26 | 179 | 17.7 | 20.9 | 0.00 | 0.00 | 0.00 | 83 | 1014.4 |
| 20260906132738 | 26 | 177 | 16.1 | 17.7 | 0.00 | 0.00 | 0.00 | 83 | 1014.4 |
| 20260906132234 | 26 | 178 | 17.7 | 20.9 | 0.00 | 0.00 | 0.00 | 84 | 1014.0 |
| 20260906131730 | 25 | 176 | 17.7 | 19.3 | 0.00 | 0.00 | 0.00 | 85 | 1014.0 |
| 20260906131224 | 25 | 180 | 17.7 | 17.7 | 0.00 | 0.00 | 0.00 | 86 | 1014.0 |
| 20260906130720 | 25 | 180 | 14.5 | 17.7 | 0.00 | 0.00 | 0.00 | 86 | 1014.0 |
| 20260906130215 | 25 | 180 | 16.1 | 19.3 | 0.00 | 0.00 | 0.00 | 88 | 1014.0 |
| 20260906125713 | 24 | 180 | 17.7 | 19.3 | 0.00 | 0.00 | 0.00 | 88 | 1014.1 |
| 20260906125212 | 24 | 175 | 17.7 | 19.3 | 0.00 | 0.00 | 0.00 | 89 | 1013.8 |
| 20260906124707 | 24 | 177 | 17.7 | 17.7 | 0.00 | 0.00 | 0.00 | 89 | 1013.7 |
| 20260906124203 | 23 | 180 | 19.3 | 20.9 | 0.00 | 0.00 | 0.00 | 90 | 1013.6 |
| 20260906123701 | 23 | 178 | 14.5 | 22.5 | 0.00 | 0.00 | 0.00 | 89 | 1013.6 |
| 20260906123156 | 23 | 180 | 16.1 | 19.3 | 0.00 | 0.00 | 0.00 | 89 | 1013.7 |
| 20260906122655 | 23 | 177 | 17.7 | 20.9 | 0.00 | 0.00 | 0.00 | 89 | 1013.5 |
| 20260906122151 | 23 | 180 | 17.7 | 20.9 | 0.00 | 0.00 | 0.00 | 89 | 1013.4 |
| 20260906121647 | 23 | 177 | 16.1 | 19.3 | 0.00 | 0.00 | 0.00 | 89 | 1013.5 |
| 20260906121138 | 23 | 176 | 16.1 | 17.7 | 0.00 | 0.00 | 0.00 | 89 | 1013.4 |
| 20260906120634 | 23 | 178 | 12.9 | 17.7 | 0.00 | 0.00 | 0.00 | 88 | 1013.1 |
| 20260906120130 | 23 | 179 | 14.5 | 16.1 | 0.00 | 0.00 | 0.00 | 88 | 1013.1 |
| 20260906115624 | 23 | 180 | 12.9 | 19.3 | 0.00 | 0.00 | 0.00 | 88 | 1013.1 |
| 20260906115120 | 23 | 180 | 14.5 | 19.3 | 0.00 | 0.00 | 0.00 | 88 | 1013.2 |
| 20260906114613 | 23 | 180 | 17.7 | 20.9 | 0.00 | 0.00 | 0.00 | 88 | 1013.1 |
| 20260906114108 | 23 | 178 | 17.7 | 19.3 | 0.00 | 0.00 | 0.00 | 88 | 1013.1 |
| 20260906113608 | 23 | 178 | 19.3 | 22.5 | 0.00 | 0.00 | 0.00 | 87 | 1013.0 |
| 20260906113103 | 24 | 178 | 17.7 | 20.9 | 0.00 | 0.00 | 0.00 | 87 | 1013.1 |
| 20260906112603 | 24 | 180 | 19.3 | 19.3 | 0.00 | 0.00 | 0.00 | 87 | 1012.8 |
| 20260906112100 | 24 | 180 | 14.5 | 19.3 | 0.00 | 0.00 | 0.00 | 87 | 1012.9 |
| 20260906111559 | 24 | 180 | 19.3 | 25.7 | 0.00 | 0.00 | 0.00 | 87 | 1012.6 |
| 20260906111055 | 24 | 178 | 17.7 | 17.7 | 0.00 | 0.00 | 0.00 | 86 | 1012.7 |
| 20260906110554 | 24 | 179 | 16.1 | 17.7 | 0.00 | 0.00 | 0.00 | 86 | 1012.7 |
| 20260906110054 | 25 | 180 | 16.1 | 19.3 | 0.00 | 0.00 | 0.00 | 85 | 1012.5 |
| 20260906105548 | 25 | 179 | 17.7 | 19.3 | 0.00 | 0.00 | 0.00 | 85 | 1012.5 |
| 20260906105045 | 25 | 177 | 17.7 | 19.3 | 0.00 | 0.00 | 0.00 | 85 | 1012.5 |
| 20260906104543 | 25 | 177 | 16.1 | 20.9 | 0.00 | 0.00 | 0.00 | 85 | 1012.4 |
| 20260906104037 | 25 | 175 | 14.5 | 20.9 | 0.00 | 0.00 | 0.00 | 84 | 1012.6 |
| 20260906103536 | 25 | 180 | 11.3 | 17.7 | 0.00 | 0.00 | 0.00 | 84 | 1012.4 |
| 20260906103031 | 25 | 179 | 17.7 | 20.9 | 0.00 | 0.00 | 0.00 | 83 | 1012.4 |
| 20260906102532 | 25 | 178 | 16.1 | 20.9 | 0.00 | 0.00 | 0.00 | 83 | 1012.4 |
| 20260906102027 | 25 | 178 | 14.5 | 19.3 | 0.00 | 0.00 | 0.00 | 83 | 1012.5 |
| 20260906101527 | 25 | 178 | 17.7 | 19.3 | 0.00 | 0.00 | 0.00 | 83 | 1012.4 |
| 20260906101022 | 25 | 179 | 16.1 | 17.7 | 0.00 | 0.00 | 0.00 | 83 | 1012.8 |
| 20260906100517 | 25 | 181 | 16.1 | 17.7 | 0.00 | 0.00 | 0.00 | 83 | 1012.5 |
| 20260906100012 | 25 | 178 | 16.1 | 17.7 | 0.00 | 0.00 | 0.00 | 83 | 1012.3 |
| 20260906095507 | 26 | 178 | 16.1 | 19.3 | 0.00 | 0.00 | 0.00 | 82 | 1012.4 |
| 20260906095002 | 26 | 180 | 16.1 | 19.3 | 0.00 | 0.00 | 0.00 | 82 | 1012.4 |
| 20260906094501 | 26 | 179 | 17.7 | 19.3 | 0.00 | 0.00 | 0.00 | 82 | 1012.3 |
| 20260906093957 | 26 | 180 | 16.1 | 17.7 | 0.00 | 0.00 | 0.00 | 82 | 1012.5 |
| 20260906093453 | 25 | 182 | 16.1 | 17.7 | 0.00 | 0.00 | 0.00 | 83 | 1012.3 |
| 20260906092954 | 25 | 182 | 17.7 | 17.7 | 0.00 | 0.00 | 0.00 | 83 | 1012.4 |
| 20260906092453 | 25 | 184 | 16.1 | 17.7 | 0.00 | 0.00 | 0.00 | 83 | 1012.3 |
| 20260906091948 | 25 | 180 | 17.7 | 19.3 | 0.00 | 0.00 | 0.00 | 83 | 1012.4 |
| 20260906091438 | 25 | 180 | 16.1 | 17.7 | 0.00 | 0.00 | 0.00 | 83 | 1012.2 |
| 20260906090934 | 25 | 179 | 16.1 | 17.7 | 0.00 | 0.00 | 0.00 | 83 | 1012.3 |
| 20260906090430 | 25 | 180 | 16.1 | 17.7 | 0.00 | 0.00 | 0.00 | 83 | 1012.2 |
| 20260906085924 | 25 | 182 | 17.7 | 17.7 | 0.00 | 0.00 | 0.00 | 82 | 1012.2 |
| 20260906085424 | 26 | 178 | 16.1 | 17.7 | 0.00 | 0.00 | 0.00 | 82 | 1012.2 |
| 20260906084923 | 26 | 180 | 16.1 | 17.7 | 0.00 | 0.00 | 0.00 | 82 | 1012.2 |
| 20260906084418 | 26 | 188 | 17.7 | 17.7 | 0.00 | 0.00 | 0.00 | 82 | 1012.3 |
| 20260906083917 | 26 | 179 | 16.1 | 17.7 | 0.00 | 0.00 | 0.00 | 81 | 1012.3 |
| 20260906083413 | 26 | 180 | 17.7 | 19.3 | 0.00 | 0.00 | 0.00 | 81 | 1012.4 |
| 20260906082912 | 26 | 180 | 16.1 | 17.7 | 0.00 | 0.00 | 0.00 | 81 | 1012.3 |
| 20260906082407 | 26 | 180 | 16.1 | 17.7 | 0.00 | 0.00 | 0.00 | 80 | 1012.4 |
| 20260906081903 | 26 | 183 | 17.7 | 17.7 | 0.00 | 0.00 | 0.00 | 80 | 1012.5 |
| 20260906081358 | 26 | 180 | 16.1 | 17.7 | 0.00 | 0.00 | 0.00 | 80 | 1012.6 |
| 20260906080854 | 26 | 178 | 16.1 | 17.7 | 0.00 | 0.00 | 0.00 | 80 | 1012.5 |
| 20260906080351 | 26 | 178 | 17.7 | 19.3 | 0.00 | 0.00 | 0.00 | 79 | 1012.5 |
| 20260906075850 | 26 | 180 | 16.1 | 19.3 | 0.00 | 0.00 | 0.00 | 79 | 1012.5 |
| 20260906075344 | 26 | 180 | 17.7 | 19.3 | 0.00 | 0.00 | 0.00 | 79 | 1012.4 |
| 20260906074840 | 26 | 176 | 16.1 | 19.3 | 0.00 | 0.00 | 0.00 | 79 | 1012.7 |
| 20260906074339 | 26 | 187 | 17.7 | 20.9 | 0.00 | 0.00 | 0.00 | 79 | 1012.8 |
| 20260906073833 | 26 | 171 | 17.7 | 19.3 | 0.00 | 0.00 | 0.00 | 78 | 1012.7 |
| 20260906073328 | 26 | 183 | 17.7 | 19.3 | 0.00 | 0.00 | 0.00 | 78 | 1012.7 |
| 20260906072825 | 26 | 181 | 16.1 | 20.9 | 0.00 | 0.00 | 0.00 | 78 | 1012.9 |
| 20260906072320 | 26 | 177 | 17.7 | 19.3 | 0.00 | 0.00 | 0.00 | 78 | 1012.6 |
| 20260906071816 | 26 | 179 | 16.1 | 19.3 | 0.00 | 0.00 | 0.00 | 78 | 1012.7 |
| 20260906071315 | 26 | 178 | 17.7 | 22.5 | 0.00 | 0.00 | 0.00 | 78 | 1012.6 |
| 20260906070813 | 26 | 184 | 17.7 | 19.3 | 0.00 | 0.00 | 0.00 | 78 | 1012.7 |
| 20260906070308 | 26 | 174 | 16.1 | 22.5 | 0.00 | 0.00 | 0.00 | 78 | 1012.8 |
| 20260906065808 | 26 | 180 | 16.1 | 20.9 | 0.00 | 0.00 | 0.00 | 78 | 1012.9 |
| 20260906065305 | 27 | 181 | 16.1 | 19.3 | 0.00 | 0.00 | 0.00 | 78 | 1013.0 |
| 20260906064758 | 27 | 184 | 17.7 | 19.3 | 0.00 | 0.00 | 0.00 | 77 | 1012.9 |
| 20260906064254 | 27 | 173 | 16.1 | 22.5 | 0.00 | 0.00 | 0.00 | 77 | 1013.0 |
| 20260906063749 | 27 | 178 | 16.1 | 19.3 | 0.00 | 0.00 | 0.00 | 77 | 1013.0 |
| 20260906063245 | 27 | 179 | 17.7 | 19.3 | 0.00 | 0.00 | 0.00 | 77 | 1013.3 |
| 20260906062740 | 27 | 180 | 17.7 | 19.3 | 0.00 | 0.00 | 0.00 | 77 | 1013.1 |
| 20260906062239 | 27 | 177 | 16.1 | 19.3 | 0.00 | 0.00 | 0.00 | 76 | 1013.2 |
| 20260906061735 | 27 | 180 | 16.1 | 19.3 | 0.00 | 0.00 | 0.00 | 76 | 1013.1 |
| 20260906061231 | 27 | 179 | 16.1 | 20.9 | 0.00 | 0.00 | 0.00 | 76 | 1013.1 |
| 20260906060726 | 27 | 187 | 17.7 | 20.9 | 0.00 | 0.00 | 0.00 | 76 | 1013.1 |
| 20260906060224 | 27 | 175 | 16.1 | 19.3 | 0.00 | 0.00 | 0.00 | 76 | 1013.2 |
| 20260906055719 | 27 | 180 | 16.1 | 22.5 | 0.00 | 0.00 | 0.00 | 75 | 1013.2 |
| 20260906055214 | 27 | 187 | 19.3 | 20.9 | 0.00 | 0.00 | 0.00 | 75 | 1013.0 |
| 20260906054710 | 27 | 173 | 17.7 | 20.9 | 0.00 | 0.00 | 0.00 | 75 | 1013.2 |
| 20260906054210 | 27 | 180 | 16.1 | 19.3 | 0.00 | 0.00 | 0.00 | 75 | 1013.3 |
| 20260906053707 | 27 | 177 | 16.1 | 17.7 | 0.00 | 0.00 | 0.00 | 75 | 1013.2 |
| 20260906053202 | 27 | 171 | 16.1 | 19.3 | 0.00 | 0.00 | 0.00 | 75 | 1013.3 |
| 20260906052657 | 27 | 178 | 17.7 | 19.3 | 0.00 | 0.00 | 0.00 | 74 | 1013.4 |
| 20260906052153 | 27 | 174 | 17.7 | 20.9 | 0.00 | 0.00 | 0.00 | 74 | 1013.2 |
| 20260906051650 | 27 | 178 | 16.1 | 19.3 | 0.00 | 0.00 | 0.00 | 74 | 1013.3 |
| 20260906051149 | 27 | 176 | 20.9 | 22.5 | 0.00 | 0.00 | 0.00 | 74 | 1013.5 |
| 20260906050645 | 27 | 178 | 17.7 | 20.9 | 0.00 | 0.00 | 0.00 | 74 | 1013.4 |
| 20260906050139 | 27 | 177 | 16.1 | 24.1 | 0.00 | 0.00 | 0.00 | 73 | 1013.5 |
| 20260906045638 | 27 | 179 | 16.1 | 17.7 | 0.00 | 0.00 | 0.00 | 73 | 1013.4 |
| 20260906045133 | 27 | 182 | 17.7 | 20.9 | 0.00 | 0.00 | 0.00 | 73 | 1013.5 |
| 20260906044630 | 27 | 180 | 19.3 | 25.7 | 0.00 | 0.00 | 0.00 | 73 | 1013.3 |
| 20260906044125 | 28 | 178 | 16.1 | 20.9 | 0.00 | 0.00 | 0.00 | 72 | 1013.3 |
| 20260906043621 | 28 | 180 | 16.1 | 22.5 | 0.00 | 0.00 | 0.00 | 72 | 1013.4 |
| 20260906043116 | 28 | 182 | 16.1 | 20.9 | 0.00 | 0.00 | 0.00 | 72 | 1013.4 |
| 20260906042615 | 28 | 180 | 16.1 | 22.5 | 0.00 | 0.00 | 0.00 | 71 | 1013.5 |
| 20260906042109 | 28 | 182 | 20.9 | 22.5 | 0.00 | 0.00 | 0.00 | 71 | 1013.6 |
| 20260906041606 | 28 | 171 | 17.7 | 19.3 | 0.00 | 0.00 | 0.00 | 71 | 1013.3 |
| 20260906041100 | 28 | 178 | 19.3 | 20.9 | 0.00 | 0.00 | 0.00 | 71 | 1013.3 |
| 20260906040555 | 28 | 178 | 16.1 | 19.3 | 0.00 | 0.00 | 0.00 | 70 | 1013.3 |
| 20260906040045 | 28 | 178 | 16.1 | 20.9 | 0.00 | 0.00 | 0.00 | 69 | 1013.5 |
| 20260906035541 | 28 | 180 | 14.5 | 22.5 | 0.00 | 0.00 | 0.00 | 69 | 1013.5 |
| 20260906035036 | 28 | 177 | 16.1 | 22.5 | 0.00 | 0.00 | 0.00 | 68 | 1013.3 |
| 20260906034536 | 28 | 161 | 17.7 | 20.9 | 0.00 | 0.00 | 0.00 | 68 | 1013.4 |
| 20260906034031 | 28 | 181 | 17.7 | 24.1 | 0.00 | 0.00 | 0.00 | 67 | 1013.5 |
| 20260906033526 | 29 | 181 | 20.9 | 24.1 | 0.00 | 0.00 | 0.00 | 66 | 1013.3 |
| 20260906033016 | 29 | 180 | 16.1 | 22.5 | 0.00 | 0.00 | 0.00 | 65 | 1013.4 |
| 20260906032512 | 29 | 175 | 17.7 | 20.9 | 0.00 | 0.00 | 0.00 | 64 | 1013.2 |
| 20260906032007 | 29 | 179 | 17.7 | 29.0 | 0.00 | 0.00 | 0.00 | 64 | 1013.1 |
| 20260906031503 | 30 | 179 | 16.1 | 20.9 | 0.00 | 0.00 | 0.00 | 62 | 1013.1 |
| 20260906030957 | 30 | 170 | 16.1 | 22.5 | 0.00 | 0.00 | 0.00 | 62 | 1012.9 |
| 20260906030452 | 30 | 177 | 17.7 | 20.9 | 0.00 | 0.00 | 0.00 | 61 | 1013.0 |
| 20260906025946 | 30 | 183 | 16.1 | 22.5 | 0.00 | 0.00 | 0.00 | 61 | 1012.9 |
| 20260906025445 | 30 | 182 | 14.5 | 24.1 | 0.00 | 0.00 | 0.00 | 61 | 1012.7 |
| 20260906024944 | 30 | 166 | 16.1 | 22.5 | 0.00 | 0.00 | 0.00 | 61 | 1012.7 |
| 20260906024444 | 30 | 175 | 17.7 | 25.7 | 0.00 | 0.00 | 0.00 | 60 | 1012.6 |
| 20260906023945 | 30 | 175 | 17.7 | 25.7 | 0.00 | 0.00 | 0.00 | 61 | 1012.7 |
| 20260906023442 | 30 | 179 | 17.7 | 25.7 | 0.00 | 0.00 | 0.00 | 61 | 1012.6 |
| 20260906022941 | 30 | 179 | 16.1 | 19.3 | 0.00 | 0.00 | 0.00 | 61 | 1012.4 |
| 20260906022437 | 30 | 171 | 17.7 | 20.9 | 0.00 | 0.00 | 0.00 | 61 | 1012.2 |
| 20260906021932 | 30 | 178 | 16.1 | 24.1 | 0.00 | 0.00 | 0.00 | 60 | 1012.3 |
| 20260906021432 | 31 | 178 | 16.1 | 20.9 | 0.00 | 0.00 | 0.00 | 60 | 1012.0 |
| 20260906020926 | 31 | 173 | 16.1 | 20.9 | 0.00 | 0.00 | 0.00 | 59 | 1012.1 |
| 20260906020421 | 31 | 174 | 16.1 | 22.5 | 0.00 | 0.00 | 0.00 | 59 | 1011.6 |
| 20260906015915 | 31 | 176 | 17.7 | 24.1 | 0.00 | 0.00 | 0.00 | 59 | 1011.7 |
| 20260906015414 | 31 | 180 | 16.1 | 17.7 | 0.00 | 0.00 | 0.00 | 59 | 1011.8 |
| 20260906014909 | 31 | 176 | 16.1 | 22.5 | 0.00 | 0.00 | 0.00 | 58 | 1011.8 |
| 20260906014409 | 31 | 182 | 17.7 | 17.7 | 0.00 | 0.00 | 0.00 | 58 | 1011.7 |
| 20260906013905 | 31 | 180 | 22.5 | 25.7 | 0.00 | 0.00 | 0.00 | 57 | 1011.6 |
| 20260906013400 | 31 | 176 | 19.3 | 22.5 | 0.00 | 0.00 | 0.00 | 57 | 1011.7 |
| 20260906012856 | 31 | 170 | 16.1 | 20.9 | 0.00 | 0.00 | 0.00 | 57 | 1011.4 |
| 20260906012350 | 32 | 180 | 17.7 | 20.9 | 0.00 | 0.00 | 0.00 | 57 | 1011.3 |
| 20260906011850 | 32 | 170 | 16.1 | 20.9 | 0.00 | 0.00 | 0.00 | 56 | 1011.1 |
| 20260906011345 | 32 | 166 | 16.1 | 20.9 | 0.00 | 0.00 | 0.00 | 56 | 1011.1 |
| 20260906010841 | 32 | 174 | 16.1 | 24.1 | 0.00 | 0.00 | 0.00 | 55 | 1011.1 |
| 20260906010337 | 32 | 185 | 17.7 | 24.1 | 0.00 | 0.00 | 0.00 | 54 | 1011.0 |
| 20260906005832 | 32 | 173 | 20.9 | 22.5 | 0.00 | 0.00 | 0.00 | 54 | 1011.0 |
| 20260906005331 | 32 | 185 | 19.3 | 24.1 | 0.00 | 0.00 | 0.00 | 53 | 1011.1 |
| 20260906004830 | 33 | 171 | 17.7 | 24.1 | 0.00 | 0.00 | 0.00 | 53 | 1011.3 |
| 20260906004330 | 33 | 171 | 17.7 | 20.9 | 0.00 | 0.00 | 0.00 | 52 | 1011.3 |
| 20260906003825 | 33 | 179 | 16.1 | 22.5 | 0.00 | 0.00 | 0.00 | 50 | 1011.0 |
| 20260906003321 | 33 | 156 | 17.7 | 24.1 | 0.00 | 0.00 | 0.00 | 48 | 1011.0 |
| 20260906002816 | 33 | 182 | 17.7 | 20.9 | 0.00 | 0.00 | 0.00 | 46 | 1011.1 |
| 20260906002315 | 34 | 178 | 19.3 | 22.5 | 0.00 | 0.00 | 0.00 | 46 | 1011.1 |
| 20260906001811 | 34 | 180 | 16.1 | 19.3 | 0.00 | 0.00 | 0.00 | 45 | 1010.9 |
| 20260906001306 | 35 | 175 | 16.1 | 24.1 | 0.00 | 0.00 | 0.00 | 44 | 1011.0 |
| 20260906000801 | 35 | 177 | 16.1 | 19.3 | 0.00 | 0.00 | 0.00 | 43 | 1011.1 |
| 20260906000256 | 35 | 176 | 16.1 | 22.5 | 0.00 | 0.00 | 0.00 | 42 | 1011.0 |
| 20260905235750 | 35 | 177 | 17.7 | 19.3 | 0.00 | 0.00 | 0.00 | 42 | 1010.9 |
| 20260905235250 | 35 | 177 | 17.7 | 20.9 | 0.00 | 0.00 | 0.00 | 41 | 1010.9 |
| 20260905234746 | 36 | 176 | 17.7 | 19.3 | 0.00 | 0.00 | 0.00 | 40 | 1010.9 |
| 20260905234241 | 37 | 178 | 14.5 | 22.5 | 0.00 | 0.00 | 0.00 | 38 | 1010.9 |
| 20260905233737 | 37 | 180 | 16.1 | 20.9 | 0.00 | 0.00 | 0.00 | 38 | 1010.9 |
| 20260905233236 | 37 | 184 | 17.7 | 22.5 | 0.00 | 0.00 | 0.00 | 38 | 1010.8 |
| 20260905232736 | 38 | 180 | 16.1 | 19.3 | 0.00 | 0.00 | 0.00 | 38 | 1010.9 |
| 20260905232232 | 37 | 177 | 16.1 | 17.7 | 0.00 | 0.00 | 0.00 | 38 | 1011.0 |
| 20260905231727 | 38 | 180 | 19.3 | 20.9 | 0.00 | 0.00 | 0.00 | 38 | 1010.9 |
| 20260905231223 | 38 | 183 | 17.7 | 22.5 | 0.00 | 0.00 | 0.00 | 38 | 1010.8 |